Weather Service Report


146 
ASUS45 KREV 042110
RWRNV 
NEVADA REGIONAL WEATHER ROUNDUP
NATIONAL WEATHER SERVICE RENO NV
200 PM PDT TUE AUG 04 2015

NOTE: "FAIR" INDICATES FEW OR NO CLOUDS BELOW 12,000 FEET WITH NO
SIGNIFICANT WEATHER AND/OR OBSTRUCTIONS TO VISIBILITY.

NVZ001-003-004-042200-
WESTERN NEVADA
  
CITY           SKY/WX    TMP DP  RH WIND       PRES   REMARKS
RENO           PTSUNNY   89  32  13 NW13      30.01F                  
CARSON CITY    FAIR      86  32  14 SW3       30.04S                  
MINDEN         FAIR      86  37  17 W12G17    30.04S                  
SLIDE MTN        N/A     64  39  39 W3          N/A                   
PYRAMID LAKE     N/A     79 N/A N/A N6          N/A                   
FALLON         MOSUNNY   93  36  13 MISG      29.97F                  
LOVELOCK       SUNNY     91  39  16 VRB5      29.97F                  
HAWTHORNE      SUNNY     88  34  14 CALM      30.00F                  
$$

NVZ002-CAZ072-073-042200-
NORTHERN AND CENTRAL SIERRA
  
CITY           SKY/WX    TMP DP  RH WIND       PRES   REMARKS
S. LAKE TAHOE  CLOUDY    75  43  31 VRB5      30.17R                  
TRUCKEE        PTSUNNY   75  45  33 W17       30.16R                  
SQUAW VLY 8000   N/A     66  43  42 SW9         N/A                   
SUSANVILLE     SUNNY     84  36  17 W14       30.02F                  
BLUE CANYON    CLOUDY    70  46  42 SW6       30.19R                  
BRIDGEPORT     FAIR      78  30  17 S9        30.18R                  
$$

NVZ030-031-036-042200-
NORTHERN NEVADA
  
CITY           SKY/WX    TMP DP  RH WIND       PRES   REMARKS
ELKO           MOSUNNY   91  33  12 W10       30.02F                  
WINNEMUCCA     SUNNY     89  37  16 VRB3G16   29.98F                  
WENDOVER       SUNNY     84  48  28 SE8       30.06F                  
$$

NVZ035-037-042200-
CENTRAL NEVADA
  
CITY           SKY/WX    TMP DP  RH WIND       PRES   REMARKS
ELY            SUNNY     87  19   8 SW10G21   30.14F                  
EUREKA           N/A     91  17   6 S13G25    30.08F                  
$$

NVZ013-014-042200-
SOUTH CENTRAL NEVADA
  
CITY           SKY/WX    TMP DP  RH WIND       PRES   REMARKS
TONOPAH        CLOUDY    89  24   9 S15G28    30.08F                  
$$

NVZ017-020-022-042200-
SOUTHERN NEVADA
  
CITY           SKY/WX    TMP DP  RH WIND       PRES   REMARKS
LAS VEGAS      NOT AVBL                                               
N. LAS VEGAS   MOSUNNY  104  28   7 S15G25    29.87F                  
NELLIS AFB     SUNNY    104  23   6 SW15G22   29.83F                  
HENDERSON      MOSUNNY  104  32   8 MISG      29.91F                  
MERCURY        MOSUNNY   98  28   8 SW14G26   29.95F                  
$$

Return to Home page


Western Regional Climate Center, wrcc@dri.edu